Tracking 29511 objects as of 15-Sep-2024
HD Live streaming from Space Station
objects crossing your sky now

STARLINK-1234

Track STARLINK-1234 now!
10-day predictions
STARLINK-1234 is classified as:


NORAD ID: 45190
Int'l Code: 2020-012N
Perigee: 553.5 km
Apogee: 555.2 km
Inclination: 53.1 °
Period: 95.6 minutes
Semi major axis: 6925 km
RCS: Unknown
Launch date: February 17, 2020
Source: United States (US)
Launch site: AIR FORCE EASTERN TEST RANGE (AFETR)
Your satellite tracking list
Your tracking list is empty




NASA's NSSDC Master Catalog

Two Line Element Set (TLE):
1 45190U 20012N   24258.34921069 -.00001022  00000-0 -49707-4 0  9997
2 45190  53.0541 276.7887 0001260  89.7724 270.3410 15.06396081253703
Source of the keplerian elements: AFSPC